FENGYUN 1C DEB

Satellite information

Favourite Embed

Satellite Type and Status

DEBRISIN ORBIT

Key statistics

Satellite FENGYUN 1C DEB at a glance.

Uptime

9714

Days in orbit

Revolutions

≈ 14.2

Per day

Orbit

SSO

Sun Synchronous Orbit

Inclination

98.9

Latest

Satellite identification and parameters

Extended collection of information and parameters for FENGYUN 1C DEB.

Object identification

Identified? True

Debris? True

Object name: FENGYUN 1C DEB

International designator: 1999-025AGF

Object number (NORAD): 30468

Object ID (CCSDS): 30468

Country: PEOPLES REPUBLIC OF CHINA (PRC)

Current information (Y/N): Y

RCS size: SMALL

Orbital parameters

Period: 101.358 minutes

Inclination: 98.9217 deg

SMA: 7201.114 km

Apoapsis: 874.791 km

Periapsis: 771.167 km

RAAN: 67.6564 deg

Eccentricy: 0.00719502

Argument of periapsis: 41.5675 deg

Mean anomaly: 17.1907 deg

Mean motion: 14.2070286 rev/day

Mean motion (dot): 0.00005024 rev/day2

B* drag term: 0.0022897035 1/REarth

Two-line elements (TLE)

Creation date: Dec. 12, 2025, 10:14 a.m.

Reference frame: TEME

Reference center: EARTH

Epoch: Dec. 12, 2025, 3:58 a.m. UTC

TLE line 0: 0 FENGYUN 1C DEB

TLE line 1: 1 30468U 99025AGF 25346.16589612 .00005024 00000-0 22897-2 0 9995

TLE line 2: 2 30468 98.9217 67.6564 0071950 41.5675 17.1907 14.20702860968023

Live tracking on map

Real-time ground track for satellite FENGYUN 1C DEB.

In-orbit conjunctions

A list of the most updated potential collisions computed for object FENGYUN 1C DEB.

Target Orbit TCA Probability of collision Miss distance Type
CZ-6A DEB LEO 2025-02-06 12:50:55 0.004115716 47.0 (m) DEBRIS
THORAD AGENA D DEB LEO 2024-10-20 11:52:14 0.0001791945 9.0 (m) DEBRIS
COSMOS 1503 LEO 2024-06-23 02:02:15 0.0006192261 837.0 (m) PAYLOAD

Associated space launch

Chinese polar orbiting meteorological satellite

FENGYUN 1C DEB was lifted into orbit during the mission ‘Long March 4B | Feng Yun 1C’, on board a Long March 4B space rocket.

The launch took place on May 10, 1999, 1:33 a.m. from Launch Complex 7.

For more information about the launch, click the button.

Launch to space Long March 4B | Feng Yun 1C
Long March 4B | Feng Yun 1C

Agency: N/A

Status: Launch Successful

Launch date: May 10, 1999, 1:33 a.m. UTC

Rocket: Long March 4B

Launch pad: Launch Complex 7

Location: Taiyuan Satellite Launch Center, People's Republic of China

...

Latest news about this satellite

There are no fresh news available about this satellite. Check back as we update our databases every day.


Newsletter sign-up

Weekly statistics, charts and insights to help you stay on top of the space industry.